sat.trackr.live / text

‹ back to catalog

STARLINK-33927

NORAD 64001 · 2025-101H

PAYLOAD ACTIVE UNKNOWN

§ Identity

Operator
Country
US
Launch date
2025-05-14
Launch site
AFETR
Launch vehicle
Mass (kg)
RCS (m²)

Purposes: comms

External: N2YO · Heavens-Above · Gunter

§ Orbital elements

Epoch: 2026-05-25T02:00:44.259840Z

Period
94.27 min
Inclination
42.9967°
Eccentricity
0.0000101
Mean motion
15.27583768 rev/d
Perigee alt
483.0 km
Apogee alt
483.1 km
Semi-major
6,861.2 km
B*
3.9290e-4
RAAN
286.9722°
Arg perigee
71.1348°
Mean anomaly
288.9514°
Rev number
5,873

§ Raw data

STARLINK-339271 64001U 25101H   26145.08384560  .00010567  00000+0  39290-3 0  99962 64001  42.9967 286.9722 0000101  71.1348 288.9514 15.27583768 58734

JSON: /api/v1/satellites/64001 · /tle

For live sub-satellite position, see the globe view (requires WebGL).

§ Visibility from observer

Set your observer location to see the next 7 days of passes ≥ 10°. The values pass through the URL so the page stays shareable.

No JS? Fill the form by hand. The geolocation button needs JavaScript.